Flag for India Weather past 2 weeks in New Okhla Industrial Development Authority, Uttar Pradesh, India

Now
88 °F

Broken clouds.


Feels Like: 96 °F
Forecast: 80 / 87 °F
Wind: 5 mph from West

Location: New Delhi Palam Airport

Current Time: Jul 31, 2015 at 3:36:38 PM

Latest Report: Jul 31, 2015 at 3:00 PM


Visibility: 2 mi

Pressure: 29.56 "Hg

Humidity: 62%

Dew point: 73 °F

Location of New Okhla Industrial Development AuthorityLocation

Historic Weather in New Okhla Industrial Development Authority — Graph

°F

New Okhla Industrial Development Authority temperature yesterday

Maximum temperature yesterday: 86 °F (at 11:30 AM)
Minimum temperature yesterday: 79 °F (at 4:00 AM)
Average temperature yesterday: 82 °F

Past Weeks' High & Low Weather Summary

 TemperatureHumidityPressure
High99 °F (Jul 16, 4:30 PM)100% (Jul 20, 8:30 AM)29.68 "Hg (Jul 20, 8:30 AM)
Low77 °F (Jul 20, 10:30 AM)47% (Jul 16, 4:30 PM)29.39 "Hg (Jul 16, 4:30 PM)
Average86 °F76%29.55 "Hg
* Reported Jul 16 1:30 PM — Jul 31 2:00 PM, New Okhla Industrial Development Authority, Weather by CustomWeather, © 2015

Note: Actual official high and low records may vary slightly from our data, if they occured in-between our weather recording intervals... More about our weather records

Advertising

New Okhla Industrial Development Authority weather history for previous 24 hours

 ConditionsComfort  
Time TempWeatherWind HumidityBarometerVisibility
2:00 PM
Fri, Jul 31
88 °FBroken clouds.7 mph62%29.56 "Hg1 mi
1:30 PM88 °FBroken clouds.6 mph62%29.59 "Hg1 mi
1:00 PM86 °FBroken clouds.3 mph70%29.59 "Hg1 mi
12:30 PM86 °FBroken clouds.3 mph70%29.59 "Hg1 mi
12:00 PM86 °FBroken clouds.7 mph70%29.59 "Hg1 mi
11:30 AM84 °FBroken clouds.7 mph74%29.59 "Hg1 mi
11:00 AM84 °FBroken clouds.8 mph74%29.59 "Hg1 mi
10:30 AM84 °FBroken clouds.7 mph74%29.59 "Hg1 mi
10:00 AM84 °FBroken clouds.7 mph74%29.59 "Hg1 mi
9:00 AM82 °FFog.3 mph84%29.56 "Hg1 mi
8:30 AM82 °FFog.3 mph84%29.56 "Hg1 mi
7:30 AM81 °FFog.3 mph84%29.56 "Hg1 mi
7:00 AM81 °FFog.3 mph84%29.56 "Hg1 mi
6:30 AM81 °FFog.3 mph84%29.56 "Hg1 mi
5:30 AM79 °FFog.5 mph89%29.53 "Hg1 mi
5:00 AM79 °FFog.5 mph94%29.53 "Hg1 mi
4:30 AM77 °FFog.7 mph100%29.53 "Hg1 mi
4:00 AM77 °FPartly cloudy.8 mph94%29.56 "Hg1 mi
3:30 AM81 °FPartly cloudy.9 mph84%29.53 "Hg2 mi
3:00 AM82 °FPartly cloudy.8 mph74%29.53 "Hg2 mi
2:30 AM82 °FPartly cloudy.9 mph74%29.53 "Hg2 mi
2:00 AM82 °FPartly cloudy.8 mph74%29.56 "Hg2 mi
1:30 AM82 °FPartly cloudy.6 mph74%29.56 "Hg2 mi
1:00 AM82 °FPartly cloudy.8 mph74%29.56 "Hg2 mi
12:30 AM82 °FPartly cloudy.8 mph74%29.56 "Hg2 mi
11:30 PM
Thu, Jul 30
82 °FPartly cloudy.N/A74%29.56 "Hg2 mi
11:00 PM82 °FPartly cloudy.9 mph74%29.56 "Hg2 mi
10:30 PM82 °FPartly cloudy.5 mph74%29.56 "Hg2 mi
10:00 PM82 °FPartly cloudy.6 mph74%29.56 "Hg2 mi
9:30 PM82 °FPartly cloudy.6 mph74%29.56 "Hg2 mi
9:00 PM81 °FPartly cloudy.6 mph84%29.56 "Hg2 mi
8:30 PM82 °FPartly cloudy.12 mph79%29.56 "Hg2 mi
8:00 PM84 °FPartly cloudy.7 mph70%29.53 "Hg2 mi
7:30 PM84 °FBroken clouds.6 mph70%29.50 "Hg2 mi
7:00 PM84 °FBroken clouds.6 mph70%29.50 "Hg2 mi
6:30 PM86 °FBroken clouds.9 mph66%29.50 "Hg2 mi
6:00 PM86 °FBroken clouds.9 mph70%29.50 "Hg2 mi
5:00 PM86 °FBroken clouds.9 mph70%29.50 "Hg1 mi
4:30 PM86 °FBroken clouds.8 mph70%29.50 "Hg1 mi
4:00 PM86 °FBroken clouds.7 mph70%29.53 "Hg1 mi
3:30 PM84 °FFog.6 mph79%29.53 "Hg1 mi
3:00 PM84 °FFog.8 mph79%29.53 "Hg1 mi
Weather by CustomWeather, © 2015

See weather overviewHow to use our weather pages